Key West, FL

9:41 PM EST on November 21, 2017 (GMT -0500)
Key West International

Weather History for KEYW - May, 2012

Change the Weather History Date:

Thursday, May 3, 2012

  Actual Average Record
Temperature  
Mean Temperature 80 °F 79 °F  
Max Temperature 83 °F 83 °F 91 °F (1873)
Min Temperature 76 °F 74 °F 65 °F (1999)
Degree Days  
Heating Degree Days 0 0  
Month to date heating degree days 0 0  
Since 1 July heating degree days 28 73  
Cooling Degree Days 15 14  
Month to date cooling degree days 42 41  
Year to date cooling degree days 1246 995  
Growing Degree Days 30 (Base 50)    
Moisture  
Dew Point 72 °F    
Average Humidity 78    
Maximum Humidity 82    
Minimum Humidity 74    
Precipitation  
Precipitation T in 0.05 in 1.51 in (1957)
Month to date precipitation 0.08 0.15  
Year to date precipitation 12.40 7.78  
Snow  
Snow 0.00 in - - ()
Month to date snowfall 0.0  
Since 1 July snowfall 0.0  
Snow Depth 0.00 in    
Sea Level Pressure  
Sea Level Pressure 30.04 in    
Wind  
Wind Speed 15 mph (ESE)    
Max Wind Speed 21 mph    
Max Gust Speed 25 mph    
Visibility 10 miles    
Events      
T = Trace of Precipitation, MM = Missing Value Source: NWS Daily Summary

Daily Weather History Graph

Daily Weather History Graph

Search for Another Location

Airport or City:

Trip Planner

Search our weather history database for the weather conditions in past years. The results will help you decide how hot, cold, wet, or windy it might be!

Date:

Astronomy

May. 03, 2012 Rise Set
Actual Time 6:50 AM EDT 7:57 PM EDT
Civil Twilight 6:26 AM EDT 8:21 PM EDT
Nautical Twilight 5:57 AM EDT 8:50 PM EDT
Astronomical Twilight 5:28 AM EDT 9:19 PM EDT
Moon 5:32 PM EDT (5/3) 4:36 AM EDT (5/3)
Length of Visible Light 13h 55m
Length of Day
13h 07m
Waxing Gibbous, 91% of the Moon is Illuminated
May 3
Waxing Gibbous
May 5
Full
May 12
Last Quarter
May 20
New
May 28
First Quarter

Hourly Weather History & Observations

Time (EDT) Temp. Heat Index Dew Point Humidity Pressure Visibility Wind Dir Wind Speed Gust Speed Precip Events Conditions
12:39 AM 78.8 °F - 71.6 °F 78% 30.05 in 10.0 mi ESE 13.8 mph - N/A   Mostly Cloudy
12:50 AM 78.8 °F - 71.6 °F 78% 30.05 in 10.0 mi ESE 18.4 mph - N/A   Mostly Cloudy
12:53 AM 78.1 °F - 71.1 °F 79% 30.04 in 10.0 mi ESE 17.3 mph - N/A   Mostly Cloudy
1:53 AM 77.0 °F - 72.0 °F 84% 30.03 in 10.0 mi ESE 17.3 mph - 0.00 in   Scattered Clouds
2:53 AM 77.0 °F - 72.0 °F 84% 30.01 in 10.0 mi East 15.0 mph 20.7 mph N/A   Clear
3:53 AM 77.0 °F - 72.0 °F 84% 30.00 in 10.0 mi ESE 15.0 mph - N/A   Clear
4:53 AM 77.0 °F - 71.1 °F 82% 29.99 in 10.0 mi ESE 16.1 mph - N/A   Partly Cloudy
5:32 AM 77.0 °F - 71.6 °F 83% 29.99 in 10.0 mi East 16.1 mph - N/A   Mostly Cloudy
5:40 AM 77.0 °F - 71.6 °F 83% 29.99 in 10.0 mi ESE 17.3 mph - N/A   Mostly Cloudy
5:53 AM 77.0 °F - 71.1 °F 82% 30.00 in 10.0 mi ESE 16.1 mph - N/A   Mostly Cloudy
6:53 AM 77.0 °F - 71.1 °F 82% 30.02 in 10.0 mi ESE 16.1 mph - N/A   Clear
8:53 AM 79.0 °F - 72.0 °F 79% 30.03 in 10.0 mi ESE 15.0 mph - N/A   Clear
9:53 AM 80.1 °F 83.8 °F 72.0 °F 76% 30.06 in 10.0 mi ESE 15.0 mph - N/A   Clear
10:53 AM 80.1 °F 83.8 °F 72.0 °F 76% 30.08 in 10.0 mi ESE 16.1 mph - N/A   Overcast
11:53 AM 82.0 °F 87.4 °F 73.0 °F 74% 30.07 in 10.0 mi ESE 13.8 mph - N/A   Clear
12:53 PM 82.0 °F 87.4 °F 73.0 °F 74% 30.07 in 10.0 mi ESE 12.7 mph - N/A   Clear
1:53 PM 82.9 °F 89.4 °F 73.9 °F 74% 30.06 in 10.0 mi ESE 12.7 mph - N/A   Scattered Clouds
2:53 PM 82.0 °F 87.4 °F 73.0 °F 74% 30.05 in 10.0 mi East 15.0 mph - N/A   Clear
3:53 PM 80.6 °F 85.4 °F 73.4 °F 79% 30.03 in 10.0 mi ESE 13.8 mph - N/A   Clear
4:53 PM 81.0 °F 85.8 °F 73.0 °F 77% 30.02 in 10.0 mi East 17.3 mph - N/A   Clear
5:53 PM 80.1 °F 83.8 °F 72.0 °F 76% 30.03 in 10.0 mi East 17.3 mph - N/A   Clear
6:53 PM 79.0 °F - 72.0 °F 79% 30.02 in 10.0 mi East 15.0 mph - N/A   Clear
7:53 PM 78.1 °F - 72.0 °F 81% 30.03 in 10.0 mi East 17.3 mph - N/A   Partly Cloudy
8:53 PM 78.1 °F - 71.1 °F 79% 30.04 in 10.0 mi ESE 16.1 mph - N/A   Clear
9:53 PM 78.1 °F - 70.0 °F 76% 30.05 in 10.0 mi East 18.4 mph 25.3 mph N/A   Clear
10:53 PM 78.1 °F - 70.0 °F 76% 30.06 in 10.0 mi East 15.0 mph 23.0 mph N/A   Clear
11:53 PM 78.1 °F - 70.0 °F 76% 30.06 in 10.0 mi East 15.0 mph - N/A   Clear